Back to catalog

STARLINK-33849

AliveCommunicationsVLEO
NORAD 63654·PAYLOAD·🇺🇸 United States

Launched Apr 25, 2025 from Cape Canaveral Space Force Station

Loading…

Next Passes (next 24 hours)

TLE

FreshSource: CelesTrak SupGP

Epoch: Sep 14, 2026, 20:40 UTC

1 63654C 25083W   26257.86159722  .00052365  00000+0  18967-2 0  2574
2 63654  43.0037  17.0425 0001643 274.9442 176.4679 15.27551551    16

Track STARLINK-33849 in real time with AllMySat

Download on the App Store